Year,Month,Day,Hour,Minute,Value (Times are PST for windgust in km/hr)
2014,10,23,00,00,19.30
2014,10,23,00,01,24.20
2014,10,23,00,02,20.90
2014,10,23,00,03,17.70
2014,10,23,00,04,24.20
2014,10,23,00,05,19.30
2014,10,23,00,06,30.60
2014,10,23,00,07,19.30
2014,10,23,00,08,20.90
2014,10,23,00,09,3.20
2014,10,23,00,10,4.80
2014,10,23,00,11,16.10
2014,10,23,00,12,16.10
2014,10,23,00,13,11.30
2014,10,23,00,14,9.60
2014,10,23,00,15,3.20
2014,10,23,00,16,1.60
2014,10,23,00,17,1.60
2014,10,23,00,18,6.40
2014,10,23,00,19,3.20
2014,10,23,00,21,1.60
2014,10,23,00,22,3.20
2014,10,23,00,23,6.40
2014,10,23,00,24,4.80
2014,10,23,00,25,3.20
2014,10,23,00,26,4.80
2014,10,23,00,27,1.60
2014,10,23,00,28,1.60
2014,10,23,00,29,3.20
2014,10,23,00,30,1.60
2014,10,23,00,31,4.80
2014,10,23,00,32,3.20
2014,10,23,00,33,4.80
2014,10,23,00,34,3.20
2014,10,23,00,36,1.60
2014,10,23,00,38,3.20
2014,10,23,00,39,6.40
2014,10,23,00,41,4.80
2014,10,23,00,42,4.80
2014,10,23,00,45,1.60
2014,10,23,00,48,4.80
2014,10,23,00,50,3.20
2014,10,23,00,51,1.60
2014,10,23,00,54,1.60
2014,10,23,00,55,9.60
2014,10,23,00,56,1.60
2014,10,23,00,58,1.60
2014,10,23,01,05,6.40
2014,10,23,01,06,4.80
2014,10,23,01,07,1.60
2014,10,23,01,08,6.40
2014,10,23,01,09,9.60
2014,10,23,01,10,6.40
2014,10,23,01,11,1.60
2014,10,23,01,12,1.60
2014,10,23,01,13,1.60
2014,10,23,01,36,6.40
2014,10,23,01,37,3.20
2014,10,23,01,38,4.80
2014,10,23,01,50,1.60
2014,10,23,01,51,4.80
2014,10,23,01,52,3.20
2014,10,23,02,02,1.60
2014,10,23,02,04,1.60
2014,10,23,02,06,1.60
2014,10,23,02,08,1.60
2014,10,23,02,10,3.20
2014,10,23,02,11,1.60
2014,10,23,02,16,1.60
2014,10,23,02,17,3.20
2014,10,23,02,20,3.20
2014,10,23,02,29,1.60
2014,10,23,02,30,1.60
2014,10,23,02,32,1.60
2014,10,23,02,33,4.80
2014,10,23,02,34,4.80
2014,10,23,02,35,4.80
2014,10,23,02,36,3.20
2014,10,23,02,37,3.20
2014,10,23,02,38,4.80
2014,10,23,02,39,4.80
2014,10,23,02,40,1.60
2014,10,23,02,41,1.60
2014,10,23,02,42,6.40
2014,10,23,02,43,4.80
2014,10,23,02,44,4.80
2014,10,23,02,45,1.60
2014,10,23,02,47,1.60
2014,10,23,02,57,1.60
2014,10,23,03,08,1.60
2014,10,23,04,38,1.60
2014,10,23,04,42,1.60
2014,10,23,04,49,1.60
2014,10,23,05,13,1.60
2014,10,23,05,14,3.20
2014,10,23,05,31,1.60
2014,10,23,05,33,1.60
2014,10,23,05,49,3.20
2014,10,23,05,50,3.20
2014,10,23,05,51,1.60
2014,10,23,05,58,1.60
2014,10,23,05,59,4.80
2014,10,23,06,00,4.80
2014,10,23,06,01,3.20
2014,10,23,06,02,1.60
2014,10,23,06,05,1.60
2014,10,23,06,11,1.60
2014,10,23,06,12,1.60
2014,10,23,06,13,3.20
2014,10,23,06,14,3.20
2014,10,23,06,15,3.20
2014,10,23,06,21,3.20
2014,10,23,06,22,3.20
2014,10,23,06,23,3.20
2014,10,23,06,24,1.60
2014,10,23,06,25,3.20
2014,10,23,06,34,1.60
2014,10,23,06,52,1.60
2014,10,23,06,53,3.20
2014,10,23,06,54,3.20
2014,10,23,06,55,4.80
2014,10,23,06,56,3.20
2014,10,23,06,57,1.60
2014,10,23,06,59,1.60
2014,10,23,07,00,4.80
2014,10,23,07,01,4.80
2014,10,23,07,02,4.80
2014,10,23,07,03,4.80
2014,10,23,07,04,3.20
2014,10,23,07,23,1.60
2014,10,23,07,24,3.20
2014,10,23,07,25,3.20
2014,10,23,07,26,4.80
2014,10,23,07,27,4.80
2014,10,23,07,28,4.80
2014,10,23,07,29,1.60
2014,10,23,07,32,1.60
2014,10,23,07,34,1.60
2014,10,23,07,35,1.60
2014,10,23,07,36,3.20
2014,10,23,07,37,3.20
2014,10,23,07,38,1.60
2014,10,23,07,40,3.20
2014,10,23,07,42,1.60
2014,10,23,07,44,1.60
2014,10,23,07,45,3.20
2014,10,23,07,46,3.20
2014,10,23,07,47,4.80
2014,10,23,07,53,1.60
2014,10,23,07,55,1.60
2014,10,23,07,56,1.60
2014,10,23,07,58,1.60
2014,10,23,08,08,1.60
2014,10,23,08,12,1.60
2014,10,23,08,31,1.60
2014,10,23,09,02,1.60
2014,10,23,09,07,1.60
2014,10,23,09,08,3.20
2014,10,23,09,09,8.10
2014,10,23,09,10,8.10
2014,10,23,09,11,3.20
2014,10,23,09,12,1.60
2014,10,23,09,13,4.80
2014,10,23,09,14,6.40
2014,10,23,09,15,4.80
2014,10,23,09,16,6.40
2014,10,23,09,17,4.80
2014,10,23,09,18,4.80
2014,10,23,09,19,3.20
2014,10,23,09,20,4.80
2014,10,23,09,21,6.40
2014,10,23,09,22,6.40
2014,10,23,09,23,6.40
2014,10,23,09,24,4.80
2014,10,23,09,25,4.80
2014,10,23,09,26,6.40
2014,10,23,09,27,6.40
2014,10,23,09,28,6.40
2014,10,23,09,29,4.80
2014,10,23,09,30,1.60
2014,10,23,09,31,1.60
2014,10,23,09,48,3.20
2014,10,23,09,49,1.60
2014,10,23,09,52,1.60
2014,10,23,09,55,1.60
2014,10,23,09,56,1.60
2014,10,23,10,00,1.60
2014,10,23,10,02,1.60
2014,10,23,10,14,1.60
2014,10,23,10,15,4.80
2014,10,23,10,20,1.60
2014,10,23,10,23,1.60
2014,10,23,10,26,4.80
2014,10,23,10,27,4.80
2014,10,23,10,28,4.80
2014,10,23,10,29,3.20
2014,10,23,10,30,8.10
2014,10,23,10,31,8.10
2014,10,23,10,32,4.80
2014,10,23,10,33,3.20
2014,10,23,10,34,6.40
2014,10,23,10,35,4.80
2014,10,23,10,36,3.20
2014,10,23,10,39,1.60
2014,10,23,10,40,4.80
2014,10,23,10,41,14.50
2014,10,23,10,42,12.90
2014,10,23,10,43,9.60
2014,10,23,10,44,11.30
2014,10,23,10,45,6.40
2014,10,23,10,46,3.20
2014,10,23,10,48,1.60
2014,10,23,10,49,1.60
2014,10,23,10,53,4.80
2014,10,23,10,54,6.40
2014,10,23,10,55,6.40
2014,10,23,10,56,4.80
2014,10,23,10,57,6.40
2014,10,23,10,58,1.60
2014,10,23,10,59,4.80
2014,10,23,11,00,4.80
2014,10,23,11,01,8.10
2014,10,23,11,02,8.10
2014,10,23,11,03,6.40
2014,10,23,11,04,6.40
2014,10,23,11,05,8.10
2014,10,23,11,06,8.10
2014,10,23,11,07,4.80
2014,10,23,11,08,3.20
2014,10,23,11,09,1.60
2014,10,23,11,10,1.60
2014,10,23,11,13,8.10
2014,10,23,11,14,9.60
2014,10,23,11,15,9.60
2014,10,23,11,16,8.10
2014,10,23,11,17,6.40
2014,10,23,11,18,8.10
2014,10,23,11,19,4.80
2014,10,23,11,20,8.10
2014,10,23,11,21,8.10
2014,10,23,11,22,14.50
2014,10,23,11,23,8.10
2014,10,23,11,24,9.60
2014,10,23,11,25,14.50
2014,10,23,11,26,8.10
2014,10,23,11,27,6.40
2014,10,23,11,28,6.40
2014,10,23,11,29,6.40
2014,10,23,11,30,4.80
2014,10,23,11,31,3.20
2014,10,23,11,32,3.20
2014,10,23,11,33,1.60
2014,10,23,11,38,1.60
2014,10,23,11,39,6.40
2014,10,23,11,40,1.60
2014,10,23,11,43,1.60
2014,10,23,11,46,1.60
2014,10,23,11,48,1.60
2014,10,23,11,52,1.60
2014,10,23,11,53,8.10
2014,10,23,11,54,8.10
2014,10,23,11,55,1.60
2014,10,23,11,57,1.60
2014,10,23,12,01,1.60
2014,10,23,12,02,3.20
2014,10,23,12,03,8.10
2014,10,23,12,04,8.10
2014,10,23,12,05,9.60
2014,10,23,12,06,9.60
2014,10,23,12,07,12.90
2014,10,23,12,08,11.30
2014,10,23,12,09,9.60
2014,10,23,12,10,8.10
2014,10,23,12,11,19.30
2014,10,23,12,12,20.90
2014,10,23,12,13,22.50
2014,10,23,12,14,17.70
2014,10,23,12,15,19.30
2014,10,23,12,16,16.10
2014,10,23,12,17,14.50
2014,10,23,12,18,22.50
2014,10,23,12,19,19.30
2014,10,23,12,20,22.50
2014,10,23,12,21,22.50
2014,10,23,12,22,16.10
2014,10,23,12,23,17.70
2014,10,23,12,24,16.10
2014,10,23,12,25,16.10
2014,10,23,12,26,11.30
2014,10,23,12,27,9.60
2014,10,23,12,28,17.70
2014,10,23,12,29,9.60
2014,10,23,12,30,12.90
2014,10,23,12,31,16.10
2014,10,23,12,32,9.60
2014,10,23,12,33,8.10
2014,10,23,12,34,8.10
2014,10,23,12,35,8.10
2014,10,23,12,36,9.60
2014,10,23,12,37,12.90
2014,10,23,12,38,16.10
2014,10,23,12,39,14.50
2014,10,23,12,40,14.50
2014,10,23,12,41,22.50
2014,10,23,12,42,17.70
2014,10,23,12,43,14.50
2014,10,23,12,44,11.30
2014,10,23,12,45,14.50
2014,10,23,12,46,11.30
2014,10,23,12,47,17.70
2014,10,23,12,48,17.70
2014,10,23,12,49,8.10
2014,10,23,12,50,22.50
2014,10,23,12,51,16.10
2014,10,23,12,52,17.70
2014,10,23,12,53,14.50
2014,10,23,12,54,11.30
2014,10,23,12,55,8.10
2014,10,23,12,56,4.80
2014,10,23,12,57,8.10
2014,10,23,12,58,14.50
2014,10,23,12,59,8.10
2014,10,23,13,00,8.10
2014,10,23,13,01,6.40
2014,10,23,13,02,9.60
2014,10,23,13,03,6.40
2014,10,23,13,04,3.20
2014,10,23,13,05,4.80
2014,10,23,13,06,6.40
2014,10,23,13,07,4.80
2014,10,23,13,08,6.40
2014,10,23,13,09,11.30
2014,10,23,13,10,9.60
2014,10,23,13,11,16.10
2014,10,23,13,12,24.20
2014,10,23,13,13,22.50
2014,10,23,13,14,20.90
2014,10,23,13,15,19.30
2014,10,23,13,16,25.70
2014,10,23,13,17,24.20
2014,10,23,13,18,22.50
2014,10,23,13,19,22.50
2014,10,23,13,20,20.90
2014,10,23,13,21,17.70
2014,10,23,13,22,19.30
2014,10,23,13,23,17.70
2014,10,23,13,24,20.90
2014,10,23,13,25,14.50
2014,10,23,13,26,17.70
2014,10,23,13,27,22.50
2014,10,23,13,28,27.40
2014,10,23,13,29,20.90
2014,10,23,13,30,14.50
2014,10,23,13,31,11.30
2014,10,23,13,32,14.50
2014,10,23,13,33,19.30
2014,10,23,13,34,17.70
2014,10,23,13,35,19.30
2014,10,23,13,36,17.70
2014,10,23,13,37,19.30
2014,10,23,13,38,22.50
2014,10,23,13,39,16.10
2014,10,23,13,40,17.70
2014,10,23,13,41,19.30
2014,10,23,13,42,19.30
2014,10,23,13,43,22.50
2014,10,23,13,44,16.10
2014,10,23,13,45,11.30
2014,10,23,13,46,9.60
2014,10,23,13,47,6.40
2014,10,23,13,49,8.10
2014,10,23,13,50,8.10
2014,10,23,13,51,16.10
2014,10,23,13,52,24.20
2014,10,23,13,53,9.60
2014,10,23,13,54,16.10
2014,10,23,13,55,11.30
2014,10,23,13,56,9.60
2014,10,23,13,57,14.50
2014,10,23,13,58,3.20
2014,10,23,13,59,9.60
2014,10,23,14,00,16.10
2014,10,23,14,01,8.10
2014,10,23,14,02,11.30
2014,10,23,14,03,16.10
2014,10,23,14,04,17.70
2014,10,23,14,05,9.60
2014,10,23,14,06,12.90
2014,10,23,14,07,1.60
2014,10,23,14,08,6.40
2014,10,23,14,09,6.40
2014,10,23,14,10,11.30
2014,10,23,14,11,11.30
2014,10,23,14,12,1.60
2014,10,23,14,14,3.20
2014,10,23,14,15,6.40
2014,10,23,14,16,11.30
2014,10,23,14,17,4.80
2014,10,23,14,18,11.30
2014,10,23,14,19,9.60
2014,10,23,14,20,4.80
2014,10,23,14,22,14.50
2014,10,23,14,23,14.50
2014,10,23,14,24,8.10
2014,10,23,14,25,3.20
2014,10,23,14,26,8.10
2014,10,23,14,27,4.80
2014,10,23,14,28,8.10
2014,10,23,14,30,6.40
2014,10,23,14,31,6.40
2014,10,23,14,32,11.30
2014,10,23,14,33,3.20
2014,10,23,14,34,3.20
2014,10,23,14,35,6.40
2014,10,23,14,36,11.30
2014,10,23,14,37,6.40
2014,10,23,14,38,1.60
2014,10,23,14,39,3.20
2014,10,23,14,41,6.40
2014,10,23,14,42,6.40
2014,10,23,14,43,9.60
2014,10,23,14,44,4.80
2014,10,23,14,45,8.10
2014,10,23,14,46,9.60
2014,10,23,14,47,4.80
2014,10,23,14,48,1.60
2014,10,23,14,49,1.60
2014,10,23,14,50,4.80
2014,10,23,14,51,8.10
2014,10,23,14,52,6.40
2014,10,23,14,53,1.60
2014,10,23,14,54,14.50
2014,10,23,14,56,1.60
2014,10,23,14,57,8.10
2014,10,23,14,58,6.40
2014,10,23,14,59,3.20
2014,10,23,15,00,9.60
2014,10,23,15,01,9.60
2014,10,23,15,02,6.40
2014,10,23,15,03,6.40
2014,10,23,15,04,6.40
2014,10,23,15,05,4.80
2014,10,23,15,06,6.40
2014,10,23,15,07,3.20
2014,10,23,15,08,4.80
2014,10,23,15,10,1.60
2014,10,23,15,11,6.40
2014,10,23,15,12,8.10
2014,10,23,15,13,3.20
2014,10,23,15,14,1.60
2014,10,23,15,16,1.60
2014,10,23,15,19,3.20
2014,10,23,15,20,1.60
2014,10,23,15,21,3.20
2014,10,23,15,22,1.60
2014,10,23,15,25,4.80
2014,10,23,15,26,4.80
2014,10,23,15,27,6.40
2014,10,23,15,28,3.20
2014,10,23,15,30,3.20
2014,10,23,15,31,3.20
2014,10,23,15,32,1.60
2014,10,23,15,33,4.80
2014,10,23,15,34,6.40
2014,10,23,15,36,6.40
2014,10,23,15,37,9.60
2014,10,23,15,38,6.40
2014,10,23,15,39,8.10
2014,10,23,15,40,6.40
2014,10,23,15,41,4.80
2014,10,23,15,42,4.80
2014,10,23,15,43,4.80
2014,10,23,15,52,3.20
2014,10,23,15,53,4.80
2014,10,23,15,54,4.80
2014,10,23,15,55,6.40
2014,10,23,15,56,1.60
2014,10,23,15,57,1.60
2014,10,23,15,59,3.20
2014,10,23,16,00,8.10
2014,10,23,16,01,4.80
2014,10,23,16,02,3.20
2014,10,23,16,03,4.80
2014,10,23,16,04,3.20
2014,10,23,16,05,1.60
2014,10,23,16,07,1.60
2014,10,23,16,08,6.40
2014,10,23,16,09,14.50
2014,10,23,16,10,17.70
2014,10,23,16,11,14.50
2014,10,23,16,12,20.90
2014,10,23,16,13,24.20
2014,10,23,16,14,19.30
2014,10,23,16,15,19.30
2014,10,23,16,16,9.60
2014,10,23,16,17,8.10
2014,10,23,16,18,4.80
2014,10,23,16,19,3.20
2014,10,23,16,22,6.40
2014,10,23,16,23,4.80
2014,10,23,16,24,4.80
2014,10,23,16,25,6.40
2014,10,23,16,26,11.30
2014,10,23,16,27,8.10
2014,10,23,16,28,9.60
2014,10,23,16,29,14.50
2014,10,23,16,30,9.60
2014,10,23,16,31,9.60
2014,10,23,16,32,14.50
2014,10,23,16,33,8.10
2014,10,23,16,34,3.20
2014,10,23,16,35,1.60
2014,10,23,16,36,8.10
2014,10,23,16,37,6.40
2014,10,23,16,38,1.60
2014,10,23,16,41,6.40
2014,10,23,16,42,11.30
2014,10,23,16,43,6.40
2014,10,23,16,44,1.60
2014,10,23,16,45,4.80
2014,10,23,16,46,1.60
2014,10,23,16,47,4.80
2014,10,23,16,48,1.60
2014,10,23,16,49,6.40
2014,10,23,16,50,1.60
2014,10,23,16,51,1.60
2014,10,23,16,52,6.40
2014,10,23,16,53,6.40
2014,10,23,16,54,3.20
2014,10,23,16,55,4.80
2014,10,23,16,56,3.20
2014,10,23,16,58,1.60
2014,10,23,16,59,8.10
2014,10,23,17,00,6.40
2014,10,23,17,04,1.60
2014,10,23,17,05,1.60
2014,10,23,17,06,3.20
2014,10,23,17,07,3.20
2014,10,23,17,08,1.60
2014,10,23,17,09,1.60
2014,10,23,17,10,1.60
2014,10,23,17,12,4.80
2014,10,23,17,13,4.80
2014,10,23,17,16,1.60
2014,10,23,17,17,3.20
2014,10,23,17,18,3.20
2014,10,23,17,21,1.60
2014,10,23,17,23,4.80
2014,10,23,17,24,1.60
2014,10,23,17,26,1.60
2014,10,23,17,27,4.80
2014,10,23,17,28,4.80
2014,10,23,17,29,1.60
2014,10,23,17,30,1.60
2014,10,23,17,31,3.20
2014,10,23,17,32,3.20
2014,10,23,17,38,1.60
2014,10,23,17,45,1.60
2014,10,23,17,46,9.60
2014,10,23,17,47,9.60
2014,10,23,17,48,1.60
2014,10,23,17,49,1.60
2014,10,23,17,50,1.60
2014,10,23,17,52,3.20
2014,10,23,17,53,4.80
2014,10,23,17,54,6.40
2014,10,23,17,55,8.10
2014,10,23,17,56,6.40
2014,10,23,17,57,6.40
2014,10,23,17,58,8.10
2014,10,23,17,59,6.40
2014,10,23,18,08,3.20
2014,10,23,18,09,4.80
2014,10,23,18,10,1.60
2014,10,23,18,43,3.20
2014,10,23,18,44,1.60
2014,10,23,18,49,1.60
2014,10,23,19,27,1.60
2014,10,23,19,29,1.60
2014,10,23,19,30,1.60
2014,10,23,19,31,3.20
2014,10,23,19,48,1.60
2014,10,23,19,49,1.60
2014,10,23,19,51,3.20
2014,10,23,19,52,4.80
2014,10,23,19,53,4.80
2014,10,23,19,54,4.80
2014,10,23,19,55,4.80
2014,10,23,19,56,3.20
2014,10,23,19,57,3.20
2014,10,23,19,58,1.60
2014,10,23,19,59,3.20
2014,10,23,20,00,4.80
2014,10,23,20,01,4.80
2014,10,23,20,02,4.80
2014,10,23,20,03,4.80
2014,10,23,20,04,4.80
2014,10,23,20,05,4.80
2014,10,23,20,06,3.20
2014,10,23,20,07,4.80
2014,10,23,20,08,4.80
2014,10,23,20,09,4.80
2014,10,23,20,10,3.20
2014,10,23,20,11,4.80
2014,10,23,20,12,4.80
2014,10,23,20,13,6.40
2014,10,23,20,14,6.40
2014,10,23,20,15,8.10
2014,10,23,20,16,4.80
2014,10,23,20,17,6.40
2014,10,23,20,18,4.80
2014,10,23,20,20,6.40
2014,10,23,20,21,3.20
2014,10,23,20,22,3.20
2014,10,23,20,23,4.80
2014,10,23,20,24,4.80
2014,10,23,20,25,8.10
2014,10,23,20,26,8.10
2014,10,23,20,27,8.10
2014,10,23,20,28,3.20
2014,10,23,20,29,3.20
2014,10,23,20,32,6.40
2014,10,23,20,33,4.80
2014,10,23,20,35,1.60
2014,10,23,20,36,1.60
2014,10,23,20,37,4.80
2014,10,23,20,38,4.80
2014,10,23,20,39,1.60
2014,10,23,20,41,4.80
2014,10,23,20,42,6.40
2014,10,23,20,43,3.20
2014,10,23,20,44,1.60
2014,10,23,20,48,1.60
2014,10,23,20,50,1.60
2014,10,23,21,03,1.60
2014,10,23,21,13,1.60
2014,10,23,21,38,1.60
2014,10,23,21,39,1.60
2014,10,23,21,41,1.60
2014,10,23,22,44,1.60
2014,10,23,23,12,1.60
2014,10,23,23,24,1.60
2014,10,23,23,25,1.60
2014,10,23,23,53,1.60
2014,10,23,23,54,3.20
